User: anonymous   Login
Location: Unspecified
(52.0178°N, 0.0000°E)
Time: 02:33:29
(UTC+00:00)
Language:

NOAA 18 - Orbit

View from above orbital plane
View from above orbital plane
View from above satellite
View from above satellite

Ground track
Ground track

The orbit data is extracted from the following two-line orbital elements,

1 28654U 05018A   19204.63058616  .00000075  00000-0  65221-4 0  9992
2 28654  99.0931 252.1194 0015339  80.8870 279.4035 14.12439691730453
Epoch (UTC): 23 July 2019 15:08:02
Eccentricity: 0.0015339
inclination: 99.0931°
perigee height: 840 km
apogee height: 862 km
right ascension of ascending node: 252.1194°
argument of perigee: 80.8870°
revolutions per day: 14.12439691
mean anomaly at epoch: 279.4035°
orbit number at epoch: 73045

The dashed part of the orbit path shows where the satellite is in the earth's shadow,  

DLR